SL-12 R/B(AUX MOTOR), 33384

Orbit data source: Space-Track

SL-12 R/B(AUX MOTOR), 33384 is space debris in HEO originally from a launch on Thu, 25 Sep 2008 UTC launched from the Tyuratam Missile And Space Complex (TTMTR). Debris objects in space refer to the collection of defunct objects orbiting the Earth. Examples of debris include non-operational satellites, rocket bodies, and fragments generated from explosions, collisions, or faulty payload assembly.

Loading next visibility...
Identifier
33384, 2008-046G
Orbit
HEO
Country
Flag of CISCIS
Related business
Manufacturer
RKKE
Mission
Spacecraft
Bus & Motor
SOZ, Unknown motor
Mass
56 kg wet, 56 kg dry
Launch date (UTC)
2008-09-25 (18 years ago)
Launch vehicle
Unknown
Launch site
Tyuratam Missile And Space Complex (TTMTR)
Object type
Payload
Rocket body
Debris
Shape & HBR
Cyl, 0.6 m
Radar Cross Section
0.660 m², Medium (>0.1 m² and < 1m²)

Expand to show TLE details & history
Last TLE update: 2 days ago

TLE from 2 days ago
0 SL-12 R/B(AUX MOTOR)
1 33384U 08046G   26171.16440387 -.00000043  00000-0  31244-3 0  9994
2 33384  65.3274  36.1465 5650113 235.7559  57.5080  4.23393382274029
Epoch: 2026-06-20T03:56Z
TLE epoch observation values (Epoch: 2026-06-20T03:56:44.494Z)
Latitude
0.00002°
Longitude
68.5906°
Altitude
9,739.833 km
Speed
4.977 km/s
True Right ascension
02h 24m 38s
True Declination
0° 00' 00"
Sunlit
Object was in daylight at epoch
Visualization orbit readout
Latitude
Unknown
Longitude
Unknown
Altitude
Unknown
Speed
Unknown
Apparent Right ascension
Unknown
Apparent Declination
Unknown
Sunlit
N/A
Visualization observer readout
Local Sidereal Time
23:27:27
Azimuth
Unknown
Elevation
Unknown
Doppler factor
Unknown
Orbital elements
Apogee altitude
18,879.479 km
Perigee altitude
642.117 km
Semi-major axis
16,138.935 km
Eccentricity
0.56501
Inclination
65.3274°
RAAN
36.1465°
Arg. of periapsis
235.7559°
True anomaly
124.30458°
Mean anomaly
57.508°
Eccentric anomaly
89.88069°
Mean motion
1.0586 °/min
Orbital period
340.07 mins
BSTAR
0.00031244
Loading maneuver chart data...
Computing Atmospheric mass density...
Loading historical data...
Loading historical data...
Loading historical data...
Loading historical data...
Loading historical data...
Loading historical data...
Loading historical data...

Documentation

Showing up to 5 results
|